[[{"header":{"parameterUnit":"m.s-1","parameterCategory":1,"la1":30.2991,"la2":30.254,"lo1":-89.0895,"lo2":-89.0444,"dy":0.0017,"dx":0.0017,"nx":28,"ny":28,"refTime":"2024-06-05T21:00:00:Z","depth":0,"parameterNumber":2,"parameterNumberName":"U-component_of_WINDS"},"data":[0,0,0,0,0,0,0,0,0,0,0,0,0,0,0,0,0,0,0,0,0,0,0,0,0,0,0,0,0,0,0,0,0,0,0,0,0,0,0,0,0,0,0,0,0,0,0,0,0,0,0,0,0,0,0,0,0,0,3.4989,3.4991,0,3.5142,3.5144,3.5146,3.5145,3.5143,3.5141,3.5139,3.5304,3.531,3.5316,0,0,0,0,0,0,0,0,0,0,0,0,0,3.4703,3.4708,3.4989,3.4991,3.4993,3.5142,3.5144,3.5146,3.5145,3.5143,3.514,3.5138,3.5301,3.5309,3.5316,0,0,0,0,0,0,0,0,0,0,0,0,0,3.4839,3.471,3.4989,3.501,3.5014,3.5142,3.5144,3.5147,3.5146,3.5143,3.514,3.5137,3.5299,3.5308,3.5317,3.5436,0,0,3.5346,3.535,0,0,0,0,0,0,0,0,3.4831,3.485,3.5005,3.5009,3.5013,3.5121,3.5104,3.5244,3.5147,3.5096,3.5139,3.5135,3.5246,3.5259,3.5295,3.5444,3.5451,3.5347,3.5353,3.5357,3.5359,0,0,0,0,0,0,0,3.4822,3.4843,3.505,3.5007,3.5012,3.5015,3.5031,3.513,3.5186,3.51,3.51,3.5118,3.5247,3.5286,3.5299,3.5453,3.5347,3.5355,3.5361,3.5365,3.5709,3.5712,0,0,0,0,0,0,3.4807,3.4835,3.5045,3.5054,3.4913,3.5022,3.504,3.509,3.5185,3.5197,3.5121,3.5118,3.5271,3.5288,3.5305,3.545,3.5357,3.5365,3.5371,3.5705,3.571,3.5713,0,0,0,0,0,0,3.4801,3.4826,3.5039,3.4945,3.4972,3.503,3.5086,3.5094,3.5133,3.52,3.5211,3.5149,3.527,3.5292,3.5403,3.5456,3.537,3.5378,3.5701,3.5707,3.5711,3.5742,0,0,0,0,0,0,3.4793,3.4823,3.4867,3.4946,3.4977,3.5132,3.5089,3.51,3.5148,3.5145,3.523,3.5241,3.5269,3.5389,3.5413,3.5467,3.5386,3.5697,3.5704,3.571,3.5736,3.5747,3.5757,0,0,0,0,0,3.4782,3.4871,3.487,3.4895,3.5033,3.5135,3.5153,3.5181,3.5152,3.5198,3.5242,3.5239,3.5446,3.5401,3.5427,3.5485,3.5694,3.5702,3.5709,3.5732,3.5745,3.5757,0,0,0,0,0,0,3.48,3.4882,3.4881,3.4997,3.5059,3.5135,3.5193,3.5195,3.5268,3.5263,3.5297,3.5316,3.5427,3.5468,3.5415,3.5606,3.5567,3.558,3.5575,3.5588,3.5598,3.5586,3.5393,0,0,0,0,0,3.4817,3.4891,3.496,3.5056,3.5087,3.5135,3.518,3.5196,3.5263,3.529,3.5342,3.5408,3.5489,3.5541,3.5619,3.5743,3.5762,3.5796,3.5806,3.5814,3.5825,3.5895,3.5911,3.5739,3.5739,3.5739,0,0,3.4854,3.4908,3.4953,3.5061,3.511,3.5188,3.5157,3.5241,3.5299,3.5303,3.5411,3.5452,3.5529,3.5647,3.5702,3.5684,3.5877,3.5824,3.583,3.5837,3.5904,3.5921,3.5935,3.5745,3.5744,3.5743,0,0,3.496,3.5008,3.5093,3.5143,3.5218,3.5249,3.527,3.5346,3.5372,3.548,3.5485,3.5557,3.5695,3.5749,3.5795,3.5923,3.5923,3.5948,3.6001,3.6068,3.6081,3.6094,3.6139,3.6155,3.5959,3.5959,3.5959,0,3.4996,3.5111,3.5137,3.5221,3.5269,3.5274,3.5362,3.541,3.5508,3.5542,3.552,3.5693,3.5745,3.5876,3.5907,3.5944,3.597,3.5937,3.6077,3.6089,3.6101,3.6145,3.6162,3.5961,3.5961,3.5961,3.596,0,3.5153,3.5233,3.5293,3.5384,3.5439,3.5525,3.5566,3.5619,3.5631,3.5665,3.5777,3.584,3.593,3.5963,3.5976,3.6097,3.6083,3.6069,3.603,3.6119,3.6161,3.6178,3.5965,3.5964,3.5963,3.5962,0,0,3.5273,3.5377,3.5399,3.544,3.5524,3.5587,3.5674,3.576,3.5805,3.5874,3.5948,3.6065,3.6052,3.6104,3.6124,3.6183,3.628,3.6162,3.6164,3.6181,3.6417,3.6427,3.6445,3.6281,3.6285,3.6287,3.6411,0,3.5387,3.5538,3.5564,3.5697,3.5772,3.5779,3.5855,3.5915,3.5951,3.6021,3.6062,3.6143,3.612,3.6152,3.621,3.6256,3.6328,3.6247,3.6353,3.6356,3.6332,3.6467,3.6478,3.6591,3.6427,3.643,3.6432,0,3.554,3.5609,3.5749,3.5822,3.5855,3.5922,3.6003,3.607,3.614,3.6162,3.622,3.6233,3.6326,3.6284,3.6413,3.6358,3.6403,3.6432,3.6437,3.6448,3.6399,3.6481,3.6628,3.6644,3.6458,3.6456,3.6454,0,3.5613,3.5741,3.5841,3.5877,3.5965,3.6012,3.6052,3.6119,3.6169,3.6242,3.6275,3.6358,3.6404,3.647,3.6506,3.6472,3.6633,3.6594,3.6655,3.6654,3.6688,3.6685,3.6843,3.6718,3.6718,3.6718,3.6717,0,3.5737,3.5823,3.5875,3.5936,3.6033,3.6064,3.6159,3.6198,3.6258,3.6329,3.6342,3.6409,3.6453,3.6527,3.6557,3.666,3.6681,3.6702,3.6709,3.67,3.6697,3.673,3.6722,3.6722,3.6721,3.672,3.672,0,3.5834,3.5873,3.5982,3.6057,3.6077,3.6145,3.621,3.6271,3.6307,3.6396,3.642,3.6476,3.6564,3.6607,3.6717,3.6737,3.6854,3.6856,3.6829,3.6831,3.689,3.6883,3.7073,3.71,3.6958,3.6959,3.696,0,3.591,3.5976,3.6057,3.6104,3.6144,3.622,3.6271,3.6305,3.6358,3.6443,3.6495,3.6582,3.6654,3.6795,3.6848,3.6932,3.6936,3.6997,3.6949,3.6939,3.6937,3.6932,3.6939,3.7006,3.7007,3.7008,3.7009,0,3.6041,3.6057,3.6128,3.6207,3.6266,3.6331,3.6394,3.6433,3.6478,3.6537,3.6626,3.6681,3.6793,3.6881,3.6969,3.7013,3.7019,3.7024,3.7042,3.7034,3.7015,3.7026,3.6851,3.7019,3.7018,3.7017,3.7017,3.7016,3.613,3.6188,3.6254,3.6333,3.6384,3.6443,3.6504,3.6546,3.662,3.6711,3.6728,3.6822,3.6893,3.7012,3.7059,3.7135,3.7122,3.7149,3.7156,3.7161,3.7164,3.7004,3.7152,3.7151,3.7151,3.7151,3.7151,0,3.6261,3.6303,3.6376,3.6463,3.6526,3.6524,3.6595,3.6648,3.673,3.6794,3.6864,3.6967,3.7052,3.7111,3.7199,3.7249,3.7254,3.727,3.7267,3.7277,3.7171,3.7146,3.7265,3.7265,3.7265,3.7264,3.7264,3.7264,3.6336,3.6434,3.6458,3.6583,3.6626,3.6716,3.6756,3.6812,3.6862,3.6975,3.7045,3.7083,3.7146,3.7238,3.7317,3.7333,3.7364,3.7381,3.7396,3.7296,3.7284,3.7273,3.7249,3.7388,3.7388,3.7495,3.7496,3.7497]},{"header":{"parameterUnit":"m.s-1","parameterCategory":1,"la1":30.2991,"la2":30.254,"lo1":-89.0895,"lo2":-89.0444,"dy":0.0017,"dx":0.0017,"nx":28,"ny":28,"refTime":"2024-06-05T21:00:00:Z","depth":0,"parameterNumber":3,"parameterNumberName":"V-component_of_WINDS"},"data":[0,0,0,0,0,0,0,0,0,0,0,0,0,0,0,0,0,0,0,0,0,0,0,0,0,0,0,0,0,0,0,0,0,0,0,0,0,0,0,0,0,0,0,0,0,0,0,0,0,0,0,0,0,0,0,0,0,0,1.2649,1.265,0,1.2767,1.2768,1.277,1.2782,1.2781,1.278,1.2779,1.2901,1.2905,1.291,0,0,0,0,0,0,0,0,0,0,0,0,0,1.2433,1.2437,1.2648,1.265,1.2651,1.2767,1.2768,1.277,1.2783,1.2781,1.278,1.2778,1.29,1.2905,1.291,0,0,0,0,0,0,0,0,0,0,0,0,0,1.2537,1.2439,1.2648,1.2671,1.2675,1.2767,1.2769,1.2771,1.2783,1.2781,1.2779,1.2778,1.2898,1.2904,1.2911,1.2988,0,0,1.2931,1.2934,0,0,0,0,0,0,0,0,1.2531,1.2545,1.2667,1.267,1.2674,1.2758,1.2738,1.2843,1.2783,1.2742,1.2779,1.2777,1.2855,1.2865,1.2891,1.2994,1.2999,1.2932,1.2936,1.2938,1.294,0,0,0,0,0,0,0,1.2524,1.254,1.2695,1.2668,1.2673,1.2676,1.2689,1.2758,1.2807,1.2745,1.2747,1.276,1.2857,1.2885,1.2894,1.3001,1.2931,1.2937,1.2941,1.2944,1.3173,1.3175,0,0,0,0,0,0,1.2512,1.2534,1.2692,1.2699,1.2596,1.2682,1.2696,1.2733,1.2807,1.2816,1.2762,1.2761,1.2875,1.2887,1.2899,1.2995,1.2938,1.2945,1.2948,1.3171,1.3173,1.3176,0,0,0,0,0,0,1.2507,1.2526,1.2687,1.2617,1.2637,1.2687,1.2729,1.2736,1.2764,1.2819,1.2828,1.2782,1.2874,1.2889,1.2966,1.2999,1.2947,1.2953,1.3168,1.3172,1.3175,1.3187,0,0,0,0,0,0,1.2501,1.2524,1.2554,1.2617,1.2641,1.2752,1.2731,1.274,1.2776,1.2775,1.284,1.2849,1.2873,1.2956,1.2972,1.3007,1.2959,1.3166,1.317,1.3174,1.3184,1.319,1.3195,0,0,0,0,0,1.2494,1.2553,1.2555,1.2574,1.2679,1.2754,1.2767,1.2794,1.2778,1.2809,1.2844,1.2847,1.2992,1.2964,1.2982,1.302,1.3164,1.3169,1.3173,1.3181,1.3189,1.3195,0,0,0,0,0,0,1.2492,1.2561,1.2565,1.2647,1.2694,1.2756,1.2795,1.2801,1.2855,1.2852,1.2883,1.2898,1.2973,1.3004,1.297,1.3098,1.3076,1.3085,1.3076,1.3084,1.309,1.3082,1.2964,0,0,0,0,0,1.2501,1.2556,1.2613,1.268,1.2703,1.2745,1.2778,1.2795,1.2845,1.2866,1.2906,1.2956,1.3013,1.305,1.3105,1.3187,1.3202,1.3222,1.3228,1.3233,1.3241,1.3288,1.3298,1.3191,1.3191,1.3191,0,0,1.2521,1.2565,1.2598,1.268,1.2719,1.2776,1.2762,1.2822,1.2864,1.2875,1.295,1.2981,1.3038,1.3118,1.3156,1.3146,1.3273,1.3239,1.3242,1.3248,1.3294,1.3304,1.3313,1.3195,1.3194,1.3194,0,0,1.2586,1.2624,1.2684,1.2724,1.2782,1.281,1.2824,1.2885,1.2906,1.2981,1.2991,1.3042,1.3139,1.318,1.3213,1.3293,1.3298,1.331,1.3341,1.3387,1.3395,1.3403,1.3433,1.3443,1.3317,1.3317,1.3317,0,1.2603,1.2688,1.2714,1.2775,1.2811,1.2823,1.2884,1.2921,1.2995,1.302,1.3008,1.313,1.317,1.326,1.3279,1.3305,1.3324,1.3303,1.3392,1.34,1.3407,1.3436,1.3447,1.3318,1.3318,1.3318,1.3318,0,1.2707,1.2766,1.2807,1.2879,1.2919,1.298,1.3015,1.3053,1.3066,1.3095,1.3172,1.3219,1.3285,1.3307,1.332,1.3399,1.3392,1.3385,1.3364,1.3418,1.3446,1.3457,1.332,1.3319,1.3319,1.3319,0,0,1.2776,1.2861,1.2876,1.2909,1.2974,1.302,1.3081,1.3145,1.3178,1.3228,1.3281,1.3362,1.3357,1.3395,1.3412,1.3452,1.3514,1.3441,1.3443,1.3454,1.3606,1.3612,1.3625,1.3517,1.3519,1.3521,1.3602,0,1.285,1.2959,1.2984,1.3078,1.3133,1.3145,1.3198,1.3244,1.3272,1.3324,1.3354,1.3413,1.34,1.3423,1.3463,1.3498,1.3545,1.3492,1.3568,1.357,1.3555,1.3639,1.3645,1.372,1.3613,1.3615,1.3616,0,1.2951,1.3004,1.3103,1.3162,1.3186,1.3233,1.3295,1.3343,1.3395,1.3413,1.3455,1.3469,1.3533,1.3507,1.3597,1.356,1.3592,1.3614,1.3617,1.3627,1.3598,1.3653,1.3744,1.3756,1.3633,1.3632,1.3631,0,1.2993,1.3089,1.3161,1.3188,1.3259,1.3292,1.3323,1.3373,1.341,1.3463,1.3488,1.3548,1.3581,1.3627,1.3656,1.3634,1.3744,1.372,1.3762,1.3761,1.3786,1.3785,1.3886,1.3803,1.3803,1.3803,1.3803,0,1.3074,1.3135,1.3181,1.3226,1.3294,1.3323,1.339,1.3421,1.3466,1.3517,1.353,1.3578,1.3613,1.3665,1.3688,1.376,1.3774,1.3791,1.3797,1.3791,1.379,1.3814,1.3811,1.3806,1.3805,1.3805,1.3804,0,1.3134,1.3167,1.3247,1.3307,1.3323,1.3371,1.3423,1.3466,1.3494,1.3559,1.3576,1.362,1.3683,1.3716,1.3794,1.381,1.3891,1.3893,1.3873,1.3876,1.3916,1.3913,1.4039,1.4058,1.3961,1.3961,1.3962,0,1.3184,1.3231,1.3296,1.3331,1.3363,1.3419,1.3457,1.3486,1.3525,1.3589,1.3626,1.3689,1.3741,1.3841,1.388,1.3941,1.3945,1.3985,1.3955,1.3948,1.3948,1.3946,1.3952,1.3991,1.3992,1.3993,1.3994,0,1.3271,1.3285,1.3339,1.3399,1.3444,1.3493,1.3541,1.3569,1.3606,1.3649,1.3713,1.3754,1.3834,1.3897,1.3961,1.3993,1.4,1.4002,1.4016,1.4011,1.3999,1.4008,1.389,1.4,1.3999,1.3999,1.3999,1.3998,1.3329,1.3372,1.3424,1.3484,1.3523,1.3568,1.3613,1.3646,1.37,1.3768,1.3782,1.385,1.3902,1.3988,1.4021,1.4075,1.4068,1.4086,1.4091,1.4096,1.4099,1.3988,1.4087,1.4087,1.4087,1.4086,1.4086,0,1.3417,1.3452,1.3507,1.3574,1.3621,1.3623,1.3676,1.3716,1.3776,1.3823,1.3875,1.3949,1.401,1.4054,1.4117,1.4152,1.4157,1.4168,1.4166,1.4174,1.4101,1.4085,1.4163,1.4163,1.4163,1.4163,1.4163,1.4162,1.3469,1.3543,1.3563,1.3656,1.369,1.3757,1.3787,1.3829,1.3867,1.395,1.4001,1.4029,1.4075,1.4141,1.4198,1.4209,1.4233,1.4243,1.4255,1.4187,1.4179,1.4171,1.4156,1.4248,1.4248,1.4324,1.4324,1.4325]}]]